Home   Weather   Lyon   Past weeks

Flag for France Past Weather in Lyon, Rhône-Alpes, France — Yesterday and Last 2 Weeks

Now
43 °F

Light rain. Mostly cloudy.


Feels Like: 39 °F
Forecast: 40 / 53 °F
Wind: 7 mph from North

Location: Lyon / Bron

Current Time: Apr 26, 2017 at 10:08:16 pm

Latest Report: Apr 26, 2017 at 9:30 pm


Visibility: N/A

Pressure: 29.95 "Hg

Humidity: 87%

Dew Point: 39 °F

Location of LyonLocation

Past Weather in Lyon — Graph

°F

Lyon Temperature Yesterday

Maximum temperature yesterday: 59 °F (at 12:00 am)
Minimum temperature yesterday: 48 °F (at 11:30 pm)
Average temperature yesterday: 54 °F

High & Low Weather Summary for the Past Weeks

 TemperatureHumidityPressure
High73 °F (Apr 24, 3:30 pm)100% (Apr 25, 7:00 pm)30.45 "Hg (Apr 25, 7:00 pm)
Low34 °F (Apr 20, 6:30 am)24% (Apr 18, 2:30 pm)29.68 "Hg (Apr 25, 7:30 pm)
Average53 °F58%30.13 "Hg
* Reported Apr 11 9:00 pm — Apr 26 9:00 pm, Lyon, Weather by CustomWeather, © 2017

Note: Actual official high and low records may vary slightly from our data, if they occured in-between our weather recording intervals... More about our weather records

Advertising

Lyon Weather History for the Previous 24 Hours

Scroll right to see more
 ConditionsComfort  
Time TempWeatherWind HumidityBarometerVisibility
9:00 pm
Wed, Apr 26
43 °FLight rain. Overcast.8 mph87%29.92 "HgN/A
8:30 pm45 °FMostly cloudy.7 mph81%29.92 "HgN/A
8:00 pm45 °FBroken clouds.7 mph87%29.89 "HgN/A
7:30 pm45 °FLight rain. Broken clouds.6 mph87%29.89 "HgN/A
7:00 pm45 °FLight rain. Overcast.6 mph87%29.89 "HgN/A
6:30 pm45 °FLight rain. Cloudy.7 mph87%29.89 "HgN/A
6:00 pm45 °FMostly cloudy.9 mph76%29.89 "HgN/A
5:30 pm46 °FMostly cloudy.8 mph71%29.89 "HgN/A
5:00 pm46 °FCloudy.9 mph71%29.89 "HgN/A
4:30 pm45 °FOvercast.9 mph81%29.89 "HgN/A
4:00 pm46 °FMostly cloudy.9 mph76%29.86 "HgN/A
3:30 pm45 °FMostly cloudy.10 mph81%29.86 "HgN/A
3:00 pm45 °FOvercast.9 mph76%29.89 "HgN/A
2:30 pm46 °FMostly cloudy.10 mph76%29.89 "HgN/A
2:00 pm45 °FOvercast.8 mph81%29.86 "HgN/A
1:30 pm43 °FOvercast.6 mph81%29.89 "HgN/A
1:00 pm45 °FOvercast.7 mph76%29.86 "HgN/A
12:30 pm43 °FOvercast.8 mph87%29.86 "HgN/A
11:30 am43 °FOvercast.6 mph81%29.86 "HgN/A
11:00 am41 °FOvercast.9 mph87%29.86 "HgN/A
10:30 am41 °FOvercast.8 mph87%29.86 "HgN/A
10:00 am41 °FOvercast.9 mph81%29.83 "HgN/A
9:30 am41 °FMostly cloudy.10 mph81%29.83 "HgN/A
9:00 am41 °FMostly cloudy.10 mph87%29.83 "HgN/A
8:30 am39 °FMostly cloudy.9 mph93%29.83 "HgN/A
8:00 am39 °FMostly cloudy.12 mph93%29.80 "HgN/A
7:30 am39 °FDrizzle. More clouds than sun.9 mph93%29.80 "HgN/A
7:00 am39 °FMostly cloudy.10 mph93%29.80 "HgN/A
6:30 am39 °FLight rain. Mostly cloudy.7 mph100%29.77 "HgN/A
6:00 am39 °FLight rain. Mostly cloudy.9 mph100%29.77 "Hg5 mi
5:30 am39 °FLight rain. Mostly cloudy.7 mph100%29.77 "Hg4 mi
5:00 am41 °FRain. Low clouds.7 mph93%29.77 "Hg5 mi
4:30 am41 °FRain. Low clouds.8 mph93%29.77 "HgN/A
4:00 am41 °FLight rain. Low clouds.7 mph93%29.77 "HgN/A
3:30 am41 °FLight rain. Mostly cloudy.9 mph93%29.77 "HgN/A
3:00 am41 °FLight rain. Mostly cloudy.10 mph93%29.77 "HgN/A
2:30 am43 °FRain. Low clouds.12 mph93%29.77 "HgN/A
2:00 am43 °FLight rain. Low clouds.10 mph93%29.77 "HgN/A
1:30 am43 °FLight rain. Mostly cloudy.3 mph93%29.77 "HgN/A
1:00 am43 °FRain. Mostly cloudy.9 mph93%29.77 "HgN/A
12:30 am45 °FRain. Overcast.9 mph87%29.77 "Hg6 mi
12:00 am46 °FRain. Passing clouds.9 mph93%29.77 "HgN/A
11:30 pm
Tue, Apr 25
48 °FRain. Partly cloudy.7 mph87%29.74 "HgN/A
11:00 pm52 °FLight rain. Overcast.13 mph82%29.74 "HgN/A
10:30 pm52 °FRain. Overcast.15 mph88%29.71 "HgN/A
Weather by CustomWeather, © 2017

See weather overviewHow to use our weather pages